{"data":{"norad_id":46375,"intl_designator":"2020-062BC","name":"STARLINK-1724","alt_names":[],"object_type":"PAYLOAD","status":"ACTIVE","operator":null,"country":"US","launch_date":"2020-09-03","launch_site_code":"AFETR","launch_vehicle":null,"mission":null,"orbit_class":"UNKNOWN","rcs_meters":null,"size_class":null,"mass_kg":null,"dimensions":null,"purposes":["comms"],"wikipedia_slug":null,"has_3d_model":false,"image_url":null,"decayed_at":null,"tle_current":{"epoch":"2026-09-19T23:16:28.679232Z","epoch_age_seconds":56899,"freshness":"FRESH","line1":"1 46375U 20062BC  26262.96977638  .03996894  12077-4  96726-3 0  9990","line2":"2 46375  53.0003  39.2917 0012053 311.4344  48.5660 16.28440930336176","mean_motion":16.2844093,"eccentricity":0.0012053,"inclination_deg":53.0003,"raan_deg":39.2917,"arg_perigee_deg":311.4344,"mean_anomaly_deg":48.566,"bstar":0.00096726,"rev_number":33617,"period_min":88.428138440367,"perigee_km":188.80827873899,"apogee_km":204.6576602875,"semimajor_km":6574.8699695132,"source":"CELESTRAK","updated_at":"2026-09-20T09:00:38.584785Z"}}}